Date,TemperatureHighF,TemperatureAvgF,TemperatureLowF,DewpointHighF,DewpointAvgF,DewpointLowF,HumidityHigh,HumidityAvg,HumidityLow,PressureMaxIn,PressureMinIn,WindSpeedMaxMPH,WindSpeedAvgMPH,GustSpeedMaxMPH,PrecipitationSumIn
2013-1-1,52,49,46,51,45,34,98,87,56,30.19,30.00,0,0,1,0.01
2013-1-2,51,44,39,50,40,35,98,88,73,30.24,29.99,7,0,10,0.00
2013-1-3,46,40,38,36,33,-100,90,79,56,30.30,30.20,13,-11,13,0.00
2013-1-4,31,30,30,26,25,25,83,81,79,30.45,30.45,0,0,11,0.00
2013-1-5,49,38,27,38,25,-100,88,66,35,30.48,30.33,0,-19,2,0.00
2013-1-6,50,43,37,40,36,34,87,77,61,30.36,30.21,2,0,7,0.00
2013-1-8,52,50,49,40,38,34,68,61,54,30.45,30.37,3,1,10,0.00
2013-1-9,59,52,50,50,42,39,73,70,68,30.44,30.40,1,0,9,0.00
2013-1-10,68,62,58,61,55,50,94,79,68,30.45,30.27,5,1,11,0.00
2013-1-11,68,63,60,64,62,58,97,95,81,30.27,30.15,5,0,11,0.00
2013-1-12,75,65,60,65,60,56,98,85,57,30.20,30.08,1,0,5,0.00
2013-1-13,62,61,61,58,57,56,89,86,82,30.10,30.07,0,0,3,0.00
2013-1-17,42,41,39,42,40,38,98,97,97,29.91,29.84,2,1,7,0.00
2013-1-19,57,49,38,34,29,22,82,50,27,30.52,30.29,5,0,5,0.00
2013-1-20,63,44,31,38,34,30,96,72,37,30.31,30.17,5,0,8,0.00
2013-1-21,56,43,32,38,31,-100,97,69,38,30.22,30.15,4,-9,16,0.00
2013-1-25,42,40,35,30,23,17,73,52,45,30.38,30.22,2,0,8,0.00
2013-1-26,58,44,37,37,30,22,92,64,27,30.36,30.22,1,0,10,0.00
2013-1-27,53,45,39,33,31,28,74,60,45,30.54,30.34,5,1,13,0.00
2013-1-28,50,45,42,43,35,30,85,68,58,30.49,30.34,4,0,6,0.00
2013-1-29,73,58,44,62,52,41,94,82,57,30.34,30.00,2,0,10,0.02
2013-1-30,69,66,64,64,62,58,94,87,78,30.00,29.61,10,2,14,0.04
2013-2-2,54,46,38,40,29,10,95,60,19,30.32,30.17,1,0,19,0.01
2013-2-3,57,44,32,38,31,20,96,68,27,30.19,30.05,6,0,11,0.00
2013-2-4,51,40,30,32,26,-100,86,61,37,30.20,30.09,1,-14,6,0.00
2013-3-26,41,38,35,24,24,23,60,55,49,30.36,30.27,1,1,0,0.00
2013-3-27,56,39,27,30,24,20,88,59,27,30.43,30.31,2,0,6,0.00
2013-4-1,60,58,56,43,42,41,60,55,51,30.07,30.03,1,0,2,0.10
2013-4-2,69,55,44,42,34,25,84,49,23,30.22,30.06,4,0,7,0.00
2013-4-3,61,50,42,35,29,25,69,46,28,30.24,30.13,4,1,6,0.00
2013-4-4,42,39,40,40,34,-100,92,87,88,30.08,30.05,5,-31,7,0.39
2013-4-5,67,59,48,45,40,34,76,50,35,30.12,30.00,1,0,6,0.17
2013-4-6,70,63,56,40,37,33,56,39,27,30.18,30.15,1,0,1,0.00
2013-4-7,78,62,46,50,44,40,83,53,29,30.25,30.10,2,0,6,0.00
2013-4-8,81,67,54,55,51,48,87,58,35,30.18,30.08,2,0,6,0.00
2013-4-9,86,70,56,58,54,50,90,60,30,30.21,30.09,3,0,7,0.00
2013-4-10,87,62,58,58,34,-100,89,52,31,30.14,29.95,1,-137,7,0.00
2013-4-16,-200,0,200,-100,-100,-100,0,0,100,30.20,30.20,0,-999,0,0.00
2013-4-17,87,27,75,62,-49,-100,60,15,40,30.27,30.08,1,-686,2,0.00
2013-4-19,-200,0,200,-100,-100,-100,0,0,100,30.08,30.07,0,-999,0,0.00
2013-4-20,66,31,39,38,-29,-100,72,21,25,30.28,30.08,6,-460,11,0.00
2013-4-21,72,39,46,42,-17,-100,59,23,27,30.38,30.25,4,-386,15,0.00
2013-4-22,57,41,50,41,8,-100,69,48,54,30.34,30.29,6,-227,8,0.00
2013-4-26,67,66,66,45,45,44,47,46,45,30.32,30.30,0,0,0,0.00
2013-4-28,58,57,56,57,56,56,98,97,97,30.09,30.05,1,0,1,1.70
2013-4-29,77,52,56,61,30,-100,98,71,47,30.09,29.95,3,-149,5,0.00
2013-4-30,80,34,59,62,-22,-100,96,39,47,30.14,29.98,3,-494,6,0.00
2013-5-1,70,3,68,56,-93,-100,63,3,59,30.24,30.10,5,-946,6,0.00
2013-5-2,68,1,68,-100,-100,-100,0,0,100,30.24,30.16,8,-973,8,0.00
2013-5-3,-200,0,200,-100,-100,-100,0,0,100,30.18,30.01,0,-999,0,0.00
2013-5-4,-200,0,200,-100,-100,-100,0,0,100,30.01,29.88,0,-999,0,0.00
2013-5-9,73,69,66,59,58,56,77,68,57,30.12,30.09,0,0,0,0.00
2013-5-10,79,61,58,62,41,-100,95,64,46,30.12,30.00,1,-101,1,0.00
2013-5-11,80,51,61,63,20,-100,93,56,54,30.02,29.91,1,-260,2,0.00
2013-5-12,72,49,51,54,15,-100,98,47,26,30.15,29.95,5,-199,11,0.00
2013-5-13,71,57,42,43,36,29,87,49,22,30.30,30.15,5,1,11,0.00
2013-5-14,81,54,45,54,29,-100,94,55,30,30.31,30.15,1,-117,6,0.00
2013-5-15,68,66,63,54,54,53,73,65,60,30.17,30.15,0,0,0,0.00
2013-5-26,88,78,55,56,47,42,91,37,21,30.31,30.20,1,0,3,0.00
2013-6-2,-200,0,200,-100,-100,-100,0,0,100,29.99,29.97,0,-999,0,0.00
2013-6-3,87,30,72,71,-42,-100,87,19,43,30.02,29.86,2,-639,8,0.00
2013-6-16,-200,0,200,-100,-100,-100,0,0,100,30.12,30.09,0,-999,0,0.00
2013-6-17,84,9,76,76,-83,-100,96,8,67,30.12,29.97,0,-893,0,0.00
2013-6-18,87,33,72,74,-28,-100,97,34,61,30.04,29.85,11,-568,11,0.00
2013-6-19,85,69,68,69,56,-100,96,75,54,30.10,29.92,1,-69,5,0.00
2013-6-20,88,68,66,68,49,-100,96,67,44,30.21,30.10,3,-101,12,0.00
2013-6-21,89,70,66,66,48,-100,91,59,37,30.26,30.17,1,-93,5,0.00
2013-6-22,88,69,65,66,46,-100,95,59,37,30.24,30.11,1,-95,4,0.00
2013-6-23,88,62,68,73,38,-100,92,64,49,30.23,30.12,0,-169,1,0.00
2013-6-24,89,50,70,73,10,-100,96,52,49,30.25,30.15,1,-350,3,0.00
2013-6-25,89,27,78,75,-45,-100,88,20,48,30.23,30.04,1,-680,6,0.06
2013-6-26,92,19,86,72,-64,-100,61,12,47,30.15,29.94,0,-788,3,0.00
2013-6-27,89,22,85,75,-56,-100,69,16,57,30.00,29.82,2,-746,8,0.00
2013-6-28,94,27,82,75,-48,-100,72,18,51,29.90,29.66,1,-699,1,0.02
2013-6-29,90,30,81,71,-42,-100,71,19,45,29.79,29.65,0,-649,5,0.00
2013-6-30,89,27,82,70,-48,-100,64,16,40,29.86,29.71,1,-680,3,0.00
2013-7-1,85,15,75,70,-74,-100,77,10,55,29.97,29.78,5,-808,5,0.00
2013-7-2,88,12,81,72,-77,-100,72,8,52,30.14,29.92,0,-855,4,0.00
2013-7-3,-200,0,200,-100,-100,-100,0,0,100,30.23,30.07,0,-999,0,0.00
2013-7-4,-200,0,200,-100,-100,-100,0,0,100,30.24,30.14,0,-999,0,0.00
2013-7-5,84,12,73,73,-73,-100,96,12,63,30.26,30.13,0,-843,0,0.00
2013-7-6,83,21,74,76,-55,-100,96,21,68,30.23,30.08,2,-734,2,0.07
2013-7-7,79,11,74,74,-75,-100,96,13,80,30.24,30.12,0,-833,0,0.00
2013-7-8,90,24,79,72,-53,-100,77,16,52,30.27,30.10,0,-720,0,0.00
2013-7-9,92,33,81,74,-38,-100,73,22,47,30.25,30.06,1,-622,2,0.00
2013-7-10,77,38,75,73,-14,-100,91,44,86,30.13,30.07,0,-500,0,0.00
2013-7-14,80,79,78,72,71,71,82,76,74,30.15,30.13,1,0,2,0.05
2013-7-17,70,70,70,69,69,68,96,96,96,30.30,30.24,1,1,6,0.30
2013-7-18,92,74,67,73,61,-100,98,75,49,30.24,30.07,4,-51,4,0.35
2013-7-19,76,76,76,69,69,68,79,78,78,30.06,30.06,0,0,0,0.00
2013-7-20,86,76,71,75,70,69,96,85,59,30.06,29.97,1,0,3,0.29
2013-7-21,91,65,71,74,49,-100,97,78,51,30.07,29.96,0,-121,0,0.33
2013-8-13,79,77,76,71,70,70,85,80,75,29.95,29.92,0,0,0,0.01
2013-8-14,76,75,74,71,71,70,91,88,85,29.93,29.91,0,0,0,0.00
2013-8-19,83,34,79,72,-29,-100,78,29,67,30.18,30.06,1,-586,5,0.00
2013-8-20,84,11,76,74,-79,-100,86,9,64,30.24,30.09,2,-868,2,0.00
2013-8-21,77,14,71,73,-70,-100,97,17,92,30.31,30.14,2,-816,2,0.00
2013-9-5,-200,0,200,-100,-100,-100,0,0,100,30.13,30.12,0,-999,0,0.00
2013-9-6,90,31,76,67,-40,-100,65,18,42,30.22,30.06,8,-636,8,0.00
2013-9-7,90,26,74,66,-52,-100,72,14,37,30.19,30.02,0,-691,3,0.00
2013-9-8,91,24,76,69,-54,-100,81,14,41,30.08,29.93,3,-724,10,0.00
2013-9-9,91,27,79,69,-49,-100,73,16,44,30.16,30.00,1,-686,3,0.00
2013-9-10,88,25,79,70,-51,-100,75,17,50,30.29,30.11,0,-709,5,0.00